Hourly Data Report for June 15, 2017

WESTERN HEAD
NOVA SCOTIA

43°59'24.070" N
64°39'51.008" W
10.10 m
8206240
71411
WWE

Download Data

Hourly Data (June 2017)
Hourly Data Report for June 15, 2017
TIME
LST
Temp Definition
°C
Dew Point Definition
°C
Rel Hum Definition
%
Precip. Amount Definition
mm

Wind Dir Definition
10's deg

Wind Spd Definition
km/h
Visibility Definition
km
Stn Press Definition
kPa
Hmdx Definition


Wind Chill Definition


Weather Definition


00:00 9.1 7.9 92 0.0 6 6   101.65     LegendNANA
01:00 10.4 9.0 91 0.0 4 7   101.67     LegendNANA
02:00 10.2 8.6 90 0.0 6 4   101.74     LegendNANA
03:00 5.8 4.4 91 0.0 0 1   101.76     LegendNANA
04:00 8.1 7.5 96 0.0 19 4   101.80     LegendNANA
05:00 9.8 8.8 94 0.0 13 11   101.83     LegendNANA
06:00 9.7 7.9 89 0.0 10 12   101.88     LegendNANA
07:00 11.2 8.0 81 0.0 11 9   101.91     LegendNANA
08:00 11.5 7.7 77 0.0 15 7   101.92     LegendNANA
09:00 11.3 7.8 79 0.0 14 7   101.95     LegendNANA
10:00 11.7 8.9 83 0.0 14 11   101.98     LegendNANA
11:00 11.4 6.3 71 0.0 14 10   102.00     LegendNANA
12:00 12.4 8.7 78 0.0 15 13   101.98     LegendNANA
13:00 13.2 8.2 72 0.0 18 19   101.94     LegendNANA
14:00 12.7 8.7 76 0.0 19 15   101.98     LegendNANA
15:00 10.6 8.3 86 0.0 19 16   101.99     LegendNANA
16:00 9.9 8.7 92 0.0 19 17   102.00     LegendNANA
17:00 10.5 9.2 92 0.8 19 16   102.00     LegendNANA
18:00 10.6 9.1 91 0.0 18 16   101.99     LegendNANA
19:00 10.1 8.7 91 0.0 20 12   102.04     LegendNANA
20:00 9.8 8.8 94 0.0 20 15   102.05     LegendNANA
21:00 9.2 8.5 95 0.0 22 11   102.10     LegendNANA
22:00 8.6 8.0 96 0.0 22 7   102.12     LegendNANA
23:00 6.7 6.3 97 0.0 23 9   102.14     LegendNANA

Notes on Data Quality.

Legend

  • E = Estimated
  • M = Missing
  • NA = Not Available*
  • [empty] = Indicates an unobserved value
Date modified: